Time,TemperatureF,DewpointF,PressureIn,WindDirection,WindDirectionDegrees,WindSpeedMPH,WindSpeedGustMPH,Humidity,HourlyPrecipIn,Conditions,Clouds,dailyrainin,SoftwareType,DateUTC
2013-09-12 00:00:00,72.9,70.4,29.98,WSW,246,0.0,0.0,92,0.00,,---,0.01,VWS V14.01,2013-09-12 04:00:00,
2013-09-12 00:01:00,72.9,70.4,29.98,WSW,246,0.0,0.0,92,0.00,,---,0.01,VWS V14.01,2013-09-12 04:01:00,
2013-09-12 00:02:00,72.9,70.4,29.98,WSW,246,0.0,0.0,92,0.00,,---,0.00,VWS V14.01,2013-09-12 04:02:00,
2013-09-12 00:06:00,72.9,70.4,29.98,WSW,247,0.0,0.0,92,0.00,,---,0.00,VWS V14.01,2013-09-12 04:06:00,
2013-09-12 00:11:00,73.1,70.3,29.97,WSW,246,0.0,0.0,91,0.00,,---,0.00,VWS V14.01,2013-09-12 04:11:00,
2013-09-12 00:17:00,73.2,70.4,29.97,WSW,246,0.0,0.0,91,0.00,,---,0.00,VWS V14.01,2013-09-12 04:17:00,
2013-09-12 00:19:00,73.2,70.4,29.97,WSW,246,0.0,0.0,91,0.00,,---,0.00,VWS V14.01,2013-09-12 04:19:00,
2013-09-12 00:24:00,73.4,70.3,29.97,WSW,246,0.0,1.0,90,0.00,,---,0.00,VWS V14.01,2013-09-12 04:24:00,
2013-09-12 00:29:00,73.5,70.7,29.97,WSW,246,0.0,0.0,91,0.00,,---,0.00,VWS V14.01,2013-09-12 04:29:00,
2013-09-12 00:34:00,73.3,70.5,29.97,WSW,246,0.0,0.0,91,0.00,,---,0.00,VWS V14.01,2013-09-12 04:34:00,
2013-09-12 00:39:00,73.3,70.5,29.97,WSW,246,0.0,0.0,91,0.00,,---,0.00,VWS V14.01,2013-09-12 04:39:00,
2013-09-12 00:44:00,73.2,70.4,29.97,WSW,246,0.0,0.0,91,0.00,,---,0.00,VWS V14.01,2013-09-12 04:44:00,
2013-09-12 00:49:00,73.3,70.2,29.97,WSW,251,0.0,0.0,90,0.00,,---,0.00,VWS V14.01,2013-09-12 04:49:00,
2013-09-12 00:54:00,73.2,70.1,29.97,WSW,252,0.0,1.0,90,0.00,,---,0.00,VWS V14.01,2013-09-12 04:54:00,
2013-09-12 00:59:00,73.4,70.3,29.97,WNW,283,0.0,1.0,90,0.00,,---,0.00,VWS V14.01,2013-09-12 04:59:00,
2013-09-12 01:04:00,73.4,70.3,29.96,West,273,0.0,0.0,90,0.00,,---,0.00,VWS V14.01,2013-09-12 05:04:00,
2013-09-12 01:09:00,73.2,70.1,29.96,NW,304,0.0,0.0,90,0.00,,---,0.00,VWS V14.01,2013-09-12 05:09:00,
2013-09-12 01:14:00,73.0,69.9,29.96,NW,304,0.0,0.0,90,0.00,,---,0.00,VWS V14.01,2013-09-12 05:14:00,
2013-09-12 01:20:00,72.8,70.0,29.96,NW,304,0.0,0.0,91,0.00,,---,0.00,VWS V14.01,2013-09-12 05:20:00,
2013-09-12 01:25:00,72.5,69.7,29.96,NW,304,0.0,0.0,91,0.00,,---,0.00,VWS V14.01,2013-09-12 05:25:00,
2013-09-12 01:30:00,72.3,69.8,29.96,NW,304,0.0,0.0,92,0.00,,---,0.00,VWS V14.01,2013-09-12 05:30:00,
2013-09-12 01:35:00,72.3,69.8,29.96,NW,305,0.0,0.0,92,0.00,,---,0.00,VWS V14.01,2013-09-12 05:35:00,
2013-09-12 01:40:00,72.1,69.7,29.96,NW,305,0.0,0.0,92,0.00,,---,0.00,VWS V14.01,2013-09-12 05:40:00,
2013-09-12 01:45:00,72.0,69.6,29.96,NW,305,0.0,0.0,92,0.00,,---,0.00,VWS V14.01,2013-09-12 05:45:00,
2013-09-12 01:50:00,71.8,69.3,29.95,NW,304,0.0,0.0,92,0.00,,---,0.00,VWS V14.01,2013-09-12 05:50:00,
2013-09-12 01:56:00,71.6,69.2,29.95,WNW,303,0.0,0.0,92,0.00,,---,0.00,VWS V14.01,2013-09-12 05:56:00,
2013-09-12 02:01:00,71.6,69.5,29.95,NW,304,0.0,0.0,93,0.00,,---,0.00,VWS V14.01,2013-09-12 06:01:00,
2013-09-12 02:06:00,71.5,69.4,29.95,NW,304,0.0,0.0,93,0.00,,---,0.00,VWS V14.01,2013-09-12 06:06:00,
2013-09-12 02:11:00,71.4,69.3,29.94,NW,304,0.0,0.0,93,0.00,,---,0.00,VWS V14.01,2013-09-12 06:11:00,
2013-09-12 02:16:00,71.3,69.2,29.94,NW,304,0.0,0.0,93,0.00,,---,0.00,VWS V14.01,2013-09-12 06:16:00,
2013-09-12 02:21:00,71.2,69.1,29.94,NW,304,0.0,0.0,93,0.00,,---,0.00,VWS V14.01,2013-09-12 06:21:00,
2013-09-12 02:26:00,71.1,69.3,29.94,WNW,303,0.0,0.0,94,0.00,,---,0.00,VWS V14.01,2013-09-12 06:26:00,
2013-09-12 02:31:00,71.0,69.2,29.94,WNW,298,0.0,0.0,94,0.00,,---,0.00,VWS V14.01,2013-09-12 06:31:00,
2013-09-12 02:36:00,71.1,69.3,29.94,WNW,293,0.0,0.0,94,0.00,,---,0.00,VWS V14.01,2013-09-12 06:36:00,
2013-09-12 02:41:00,71.1,69.3,29.93,WNW,293,0.0,0.0,94,0.00,,---,0.00,VWS V14.01,2013-09-12 06:41:00,
2013-09-12 02:46:00,71.2,69.4,29.93,WNW,294,0.0,0.0,94,0.00,,---,0.00,VWS V14.01,2013-09-12 06:46:00,
2013-09-12 02:51:00,71.3,69.5,29.93,WNW,295,0.0,1.0,94,0.00,,---,0.00,VWS V14.01,2013-09-12 06:51:00,
2013-09-12 02:56:00,71.4,69.6,29.93,WNW,295,0.0,0.0,94,0.00,,---,0.00,VWS V14.01,2013-09-12 06:56:00,
2013-09-12 03:01:00,71.4,69.6,29.93,WNW,295,0.0,1.0,94,0.00,,---,0.00,VWS V14.01,2013-09-12 07:01:00,
2013-09-12 03:06:00,71.4,69.3,29.93,WNW,297,0.0,1.0,93,0.00,,---,0.00,VWS V14.01,2013-09-12 07:06:00,
2013-09-12 03:11:00,71.4,69.3,29.93,WNW,291,0.0,0.0,93,0.00,,---,0.00,VWS V14.01,2013-09-12 07:11:00,
2013-09-12 03:16:00,71.4,69.0,29.93,WNW,291,0.0,0.0,92,0.00,,---,0.00,VWS V14.01,2013-09-12 07:16:00,
2013-09-12 03:21:00,71.4,68.3,29.93,WNW,288,0.0,0.0,90,0.00,,---,0.00,VWS V14.01,2013-09-12 07:21:00,
2013-09-12 03:26:00,71.4,68.3,29.93,NW,311,1.0,1.0,90,0.00,,---,0.00,VWS V14.01,2013-09-12 07:26:00,
2013-09-12 03:31:00,71.4,68.0,29.93,WNW,295,0.0,0.0,89,0.00,,---,0.00,VWS V14.01,2013-09-12 07:31:00,
2013-09-12 03:36:00,71.4,68.0,29.93,NW,311,2.0,2.0,89,0.00,,---,0.00,VWS V14.01,2013-09-12 07:36:00,
2013-09-12 03:41:00,71.6,67.9,29.93,WNW,288,0.0,1.0,88,0.00,,---,0.00,VWS V14.01,2013-09-12 07:41:00,
2013-09-12 03:46:00,71.6,67.9,29.93,WNW,288,0.0,0.0,88,0.00,,---,0.00,VWS V14.01,2013-09-12 07:46:00,
2013-09-12 03:51:00,71.5,67.8,29.93,WNW,287,0.0,0.0,88,0.00,,---,0.00,VWS V14.01,2013-09-12 07:51:00,
2013-09-12 03:56:00,71.5,67.8,29.93,WNW,290,0.0,0.0,88,0.00,,---,0.00,VWS V14.01,2013-09-12 07:56:00,
2013-09-12 04:01:00,71.6,67.9,29.93,WNW,294,1.0,1.0,88,0.00,,---,0.00,VWS V14.01,2013-09-12 08:01:00,
2013-09-12 04:06:00,71.6,67.9,29.93,WNW,292,0.0,0.0,88,0.00,,---,0.00,VWS V14.01,2013-09-12 08:06:00,
2013-09-12 04:11:00,71.6,67.9,29.93,NNW,342,0.0,0.0,88,0.00,,---,0.00,VWS V14.01,2013-09-12 08:11:00,
2013-09-12 04:17:00,71.7,68.0,29.92,NW,322,0.0,0.0,88,0.00,,---,0.00,VWS V14.01,2013-09-12 08:17:00,
2013-09-12 04:22:00,71.6,67.9,29.93,NW,322,0.0,0.0,88,0.00,,---,0.00,VWS V14.01,2013-09-12 08:22:00,
2013-09-12 04:27:00,71.6,67.9,29.92,NNW,334,1.0,2.0,88,0.00,,---,0.00,VWS V14.01,2013-09-12 08:27:00,
2013-09-12 04:32:00,71.7,68.0,29.92,NW,307,0.0,0.0,88,0.00,,---,0.00,VWS V14.01,2013-09-12 08:32:00,
2013-09-12 04:37:00,71.6,67.9,29.92,NW,307,0.0,0.0,88,0.00,,---,0.00,VWS V14.01,2013-09-12 08:37:00,
2013-09-12 04:42:00,71.7,68.0,29.93,WNW,288,0.0,0.0,88,0.00,,---,0.00,VWS V14.01,2013-09-12 08:42:00,
2013-09-12 04:47:00,71.7,67.6,29.92,WNW,290,0.0,1.0,87,0.00,,---,0.00,VWS V14.01,2013-09-12 08:47:00,
2013-09-12 04:52:00,71.7,67.6,29.92,WNW,289,0.0,0.0,87,0.00,,---,0.00,VWS V14.01,2013-09-12 08:52:00,
2013-09-12 04:57:00,71.8,68.1,29.92,West,271,0.0,0.0,88,0.00,,---,0.00,VWS V14.01,2013-09-12 08:57:00,
2013-09-12 05:02:00,71.8,68.1,29.92,West,272,0.0,1.0,88,0.00,,---,0.00,VWS V14.01,2013-09-12 09:02:00,
2013-09-12 05:07:00,71.9,68.2,29.92,WNW,297,0.0,0.0,88,0.00,,---,0.00,VWS V14.01,2013-09-12 09:07:00,
2013-09-12 05:12:00,72.1,68.0,29.92,WNW,294,0.0,0.0,87,0.00,,---,0.00,VWS V14.01,2013-09-12 09:12:00,
2013-09-12 05:17:00,72.2,68.1,29.92,WNW,295,0.0,0.0,87,0.00,,---,0.00,VWS V14.01,2013-09-12 09:17:00,
2013-09-12 05:22:00,72.1,68.0,29.92,WNW,295,0.0,0.0,87,0.00,,---,0.00,VWS V14.01,2013-09-12 09:22:00,
2013-09-12 05:27:00,71.9,68.2,29.92,WNW,295,0.0,0.0,88,0.00,,---,0.00,VWS V14.01,2013-09-12 09:27:00,
2013-09-12 05:32:00,71.7,68.0,29.92,WNW,295,0.0,0.0,88,0.00,,---,0.00,VWS V14.01,2013-09-12 09:32:00,
2013-09-12 05:37:00,71.4,68.0,29.92,WNW,295,0.0,0.0,89,0.00,,---,0.00,VWS V14.01,2013-09-12 09:37:00,
2013-09-12 05:42:00,71.3,67.9,29.92,WNW,295,0.0,0.0,89,0.00,,---,0.00,VWS V14.01,2013-09-12 09:42:00,
2013-09-12 05:47:00,71.1,68.0,29.92,WNW,295,0.0,0.0,90,0.00,,---,0.00,VWS V14.01,2013-09-12 09:47:00,
2013-09-12 05:52:00,71.1,68.3,29.92,WNW,297,0.0,0.0,91,0.00,,---,0.00,VWS V14.01,2013-09-12 09:52:00,
2013-09-12 05:58:00,71.0,68.2,29.92,NW,325,0.0,0.0,91,0.00,,---,0.00,VWS V14.01,2013-09-12 09:58:00,
2013-09-12 06:03:00,71.0,68.2,29.92,NW,323,0.0,0.0,91,0.00,,---,0.00,VWS V14.01,2013-09-12 10:03:00,
2013-09-12 06:08:00,70.9,68.2,29.92,NW,323,0.0,0.0,91,0.00,,---,0.00,VWS V14.01,2013-09-12 10:08:00,
2013-09-12 06:13:00,70.9,68.2,29.92,NW,323,0.0,0.0,91,0.00,,---,0.00,VWS V14.01,2013-09-12 10:13:00,
2013-09-12 06:18:00,70.9,68.2,29.92,NW,324,0.0,0.0,91,0.00,,---,0.00,VWS V14.01,2013-09-12 10:18:00,
2013-09-12 06:23:00,70.8,68.4,29.92,NW,323,0.0,0.0,92,0.00,,---,0.00,VWS V14.01,2013-09-12 10:23:00,
2013-09-12 06:28:00,70.7,68.3,29.92,NW,323,0.0,0.0,92,0.00,,---,0.00,VWS V14.01,2013-09-12 10:28:00,
2013-09-12 06:33:00,70.6,68.2,29.92,NW,315,0.0,0.0,92,0.00,,---,0.00,VWS V14.01,2013-09-12 10:33:00,
2013-09-12 06:38:00,70.7,68.3,29.92,NW,315,0.0,0.0,92,0.00,,---,0.00,VWS V14.01,2013-09-12 10:38:00,
2013-09-12 06:43:00,70.6,68.2,29.92,NW,315,0.0,0.0,92,0.00,,---,0.00,VWS V14.01,2013-09-12 10:43:00,
2013-09-12 06:49:00,70.6,68.2,29.92,WNW,302,0.0,0.0,92,0.00,,---,0.00,VWS V14.01,2013-09-12 10:49:00,
2013-09-12 06:54:00,70.8,68.1,29.93,NNE,26,0.0,0.0,91,0.00,,---,0.00,VWS V14.01,2013-09-12 10:54:00,
2013-09-12 06:59:00,70.9,68.2,29.93,NW,316,0.0,0.0,91,0.00,,---,0.00,VWS V14.01,2013-09-12 10:59:00,
2013-09-12 07:04:00,71.1,68.3,29.93,NW,316,0.0,0.0,91,0.00,,---,0.00,VWS V14.01,2013-09-12 11:04:00,
2013-09-12 07:09:00,71.1,68.3,29.93,NW,305,0.0,0.0,91,0.00,,---,0.00,VWS V14.01,2013-09-12 11:09:00,
2013-09-12 07:14:00,71.1,68.3,29.93,NW,305,0.0,0.0,91,0.00,,---,0.00,VWS V14.01,2013-09-12 11:14:00,
2013-09-12 07:19:00,71.1,68.3,29.93,NW,305,0.0,0.0,91,0.00,,---,0.00,VWS V14.01,2013-09-12 11:19:00,
2013-09-12 07:24:00,71.1,68.3,29.93,NW,305,0.0,0.0,91,0.00,,---,0.00,VWS V14.01,2013-09-12 11:24:00,
2013-09-12 07:29:00,71.1,68.3,29.93,NW,305,0.0,0.0,91,0.00,,---,0.00,VWS V14.01,2013-09-12 11:29:00,
2013-09-12 07:34:00,71.0,68.6,29.93,NW,305,0.0,0.0,92,0.00,,---,0.00,VWS V14.01,2013-09-12 11:34:00,
2013-09-12 07:39:00,71.0,68.6,29.93,NW,305,0.0,0.0,92,0.00,,---,0.00,VWS V14.01,2013-09-12 11:39:00,
2013-09-12 07:44:00,71.0,68.6,29.93,NW,304,0.0,0.0,92,0.00,,---,0.00,VWS V14.01,2013-09-12 11:44:00,
2013-09-12 07:49:00,71.1,68.7,29.93,NW,315,0.0,0.0,92,0.00,,---,0.00,VWS V14.01,2013-09-12 11:49:00,
2013-09-12 07:54:00,71.2,68.8,29.92,ENE,73,0.0,0.0,92,0.00,,---,0.00,VWS V14.01,2013-09-12 11:54:00,
2013-09-12 07:59:00,71.5,69.1,29.92,ENE,74,0.0,0.0,92,0.00,,---,0.00,VWS V14.01,2013-09-12 11:59:00,
2013-09-12 08:05:00,71.7,69.3,29.92,NNE,20,0.0,0.0,92,0.00,,---,0.00,VWS V14.01,2013-09-12 12:05:00,
2013-09-12 08:10:00,71.8,69.3,29.92,NE,43,0.0,0.0,92,0.00,,---,0.00,VWS V14.01,2013-09-12 12:10:00,
2013-09-12 08:15:00,71.9,69.4,29.92,SE,143,0.0,0.0,92,0.00,,---,0.00,VWS V14.01,2013-09-12 12:15:00,
2013-09-12 08:20:00,72.1,70.0,29.92,SE,142,0.0,0.0,93,0.00,,---,0.00,VWS V14.01,2013-09-12 12:20:00,
2013-09-12 08:25:00,72.3,69.8,29.92,SE,139,0.0,0.0,92,0.00,,---,0.00,VWS V14.01,2013-09-12 12:25:00,
2013-09-12 08:30:00,72.6,69.8,29.91,SE,139,0.0,0.0,91,0.00,,---,0.00,VWS V14.01,2013-09-12 12:30:00,
2013-09-12 08:35:00,73.1,70.3,29.91,North,356,0.0,1.0,91,0.00,,---,0.00,VWS V14.01,2013-09-12 12:35:00,
2013-09-12 08:40:00,73.5,70.1,29.91,NW,322,0.0,0.0,89,0.00,,---,0.00,VWS V14.01,2013-09-12 12:40:00,
2013-09-12 08:45:00,73.9,70.1,29.91,NE,43,0.0,0.0,88,0.00,,---,0.00,VWS V14.01,2013-09-12 12:45:00,
2013-09-12 08:50:00,74.2,70.4,29.90,ESE,110,0.0,0.0,88,0.00,,---,0.00,VWS V14.01,2013-09-12 12:50:00,
2013-09-12 08:55:00,74.6,70.8,29.90,East,99,0.0,0.0,88,0.00,,---,0.00,VWS V14.01,2013-09-12 12:55:00,
2013-09-12 09:00:00,74.9,71.1,29.90,SE,132,0.0,0.0,88,0.00,,---,0.00,VWS V14.01,2013-09-12 13:00:00,
2013-09-12 09:05:00,75.2,71.4,29.90,SE,133,0.0,0.0,88,0.00,,---,0.00,VWS V14.01,2013-09-12 13:05:00,
2013-09-12 09:10:00,75.2,71.1,29.90,NNE,16,0.0,0.0,87,0.00,,---,0.00,VWS V14.01,2013-09-12 13:10:00,
2013-09-12 09:15:00,75.1,71.0,29.90,NE,50,0.0,0.0,87,0.00,,---,0.00,VWS V14.01,2013-09-12 13:15:00,
2013-09-12 09:20:00,74.9,71.1,29.90,NE,56,0.0,0.0,88,0.00,,---,0.00,VWS V14.01,2013-09-12 13:20:00,
2013-09-12 09:25:00,74.6,70.8,29.90,NE,56,0.0,0.0,88,0.00,,---,0.00,VWS V14.01,2013-09-12 13:25:00,
2013-09-12 09:30:00,74.2,70.4,29.90,SSE,150,0.0,0.0,88,0.00,,---,0.00,VWS V14.01,2013-09-12 13:30:00,
2013-09-12 09:35:00,74.3,70.8,29.90,ENE,68,0.0,0.0,89,0.00,,---,0.00,VWS V14.01,2013-09-12 13:35:00,
2013-09-12 09:40:00,74.6,71.2,29.90,North,11,0.0,0.0,89,0.00,,---,0.00,VWS V14.01,2013-09-12 13:40:00,
2013-09-12 09:46:00,75.0,71.5,29.90,South,180,0.0,0.0,89,0.00,,---,0.00,VWS V14.01,2013-09-12 13:46:00,
2013-09-12 09:51:00,75.4,71.6,29.90,NNW,338,0.0,0.0,88,0.00,,---,0.00,VWS V14.01,2013-09-12 13:51:00,
2013-09-12 09:56:00,75.8,71.3,29.90,NNW,328,0.0,0.0,86,0.00,,---,0.00,VWS V14.01,2013-09-12 13:56:00,
2013-09-12 10:01:00,76.4,71.2,29.90,NW,316,0.0,0.0,84,0.00,,---,0.00,VWS V14.01,2013-09-12 14:01:00,
2013-09-12 10:06:00,76.9,71.7,29.90,North,3,0.0,0.0,84,0.00,,---,0.00,VWS V14.01,2013-09-12 14:06:00,
2013-09-12 10:11:00,77.2,71.6,29.90,ESE,119,0.0,1.0,83,0.00,,---,0.00,VWS V14.01,2013-09-12 14:11:00,
2013-09-12 10:16:00,77.2,71.3,29.89,NNW,348,3.0,3.0,82,0.00,,---,0.00,VWS V14.01,2013-09-12 14:16:00,
2013-09-12 10:21:00,77.1,71.2,29.89,North,356,0.0,0.0,82,0.00,,---,0.00,VWS V14.01,2013-09-12 14:21:00,
2013-09-12 10:26:00,77.3,71.4,29.89,NW,323,0.0,0.0,82,0.00,,---,0.00,VWS V14.01,2013-09-12 14:26:00,
2013-09-12 10:31:00,77.7,71.4,29.89,ENE,75,0.0,0.0,81,0.00,,---,0.00,VWS V14.01,2013-09-12 14:31:00,
2013-09-12 10:36:00,78.3,71.6,29.89,NW,326,0.0,0.0,80,0.00,,---,0.00,VWS V14.01,2013-09-12 14:36:00,
2013-09-12 10:41:00,78.7,72.4,29.89,North,356,2.0,3.0,81,0.00,,---,0.00,VWS V14.01,2013-09-12 14:41:00,
2013-09-12 10:46:00,79.0,71.6,29.89,East,93,1.0,1.0,78,0.00,,---,0.00,VWS V14.01,2013-09-12 14:46:00,
2013-09-12 10:51:00,79.2,72.1,29.89,NW,321,0.0,0.0,79,0.00,,---,0.00,VWS V14.01,2013-09-12 14:51:00,
2013-09-12 10:56:00,79.6,71.8,29.88,SE,128,1.0,1.0,77,0.00,,---,0.00,VWS V14.01,2013-09-12 14:56:00,
2013-09-12 11:01:00,79.9,71.7,29.89,North,1,1.0,1.0,76,0.00,,---,0.00,VWS V14.01,2013-09-12 15:01:00,
2013-09-12 11:07:00,80.2,72.3,29.88,NW,317,0.0,0.0,77,0.00,,---,0.00,VWS V14.01,2013-09-12 15:07:00,
2013-09-12 11:12:00,80.6,72.3,29.88,ENE,77,0.0,0.0,76,0.00,,---,0.00,VWS V14.01,2013-09-12 15:12:00,
2013-09-12 11:17:00,81.1,72.8,29.88,WNW,293,0.0,0.0,76,0.00,,---,0.00,VWS V14.01,2013-09-12 15:17:00,
2013-09-12 11:22:00,81.7,71.8,29.88,NW,326,0.0,0.0,72,0.00,,---,0.00,VWS V14.01,2013-09-12 15:22:00,
2013-09-12 11:27:00,82.0,72.9,29.88,East,97,0.0,0.0,74,0.00,,---,0.00,VWS V14.01,2013-09-12 15:27:00,
2013-09-12 11:32:00,81.8,72.3,29.87,NNW,341,0.0,1.0,73,0.00,,---,0.00,VWS V14.01,2013-09-12 15:32:00,
2013-09-12 11:37:00,81.6,72.1,29.87,North,3,0.0,1.0,73,0.00,,---,0.00,VWS V14.01,2013-09-12 15:37:00,
2013-09-12 11:42:00,81.2,72.5,29.87,NW,326,0.0,0.0,75,0.00,,---,0.00,VWS V14.01,2013-09-12 15:42:00,
2013-09-12 11:47:00,81.4,72.7,29.87,ESE,107,0.0,0.0,75,0.00,,---,0.00,VWS V14.01,2013-09-12 15:47:00,
2013-09-12 11:52:00,81.4,72.7,29.87,NW,326,0.0,1.0,75,0.00,,---,0.00,VWS V14.01,2013-09-12 15:52:00,
2013-09-12 11:57:00,81.4,72.7,29.86,WNW,298,0.0,4.0,75,0.00,,---,0.00,VWS V14.01,2013-09-12 15:57:00,
2013-09-12 12:02:00,81.4,72.7,29.86,North,355,0.0,1.0,75,0.00,,---,0.00,VWS V14.01,2013-09-12 16:02:00,
2013-09-12 12:07:00,81.7,73.8,29.86,NE,43,0.0,0.0,77,0.00,,---,0.00,VWS V14.01,2013-09-12 16:07:00,
2013-09-12 12:12:00,82.0,73.3,29.85,NW,314,2.0,3.0,75,0.00,,---,0.00,VWS V14.01,2013-09-12 16:12:00,
2013-09-12 12:18:00,82.8,73.3,29.85,ENE,74,0.0,0.0,73,0.00,,---,0.00,VWS V14.01,2013-09-12 16:18:00,
2013-09-12 12:23:00,83.3,72.9,29.85,NNE,18,0.0,1.0,71,0.00,,---,0.00,VWS V14.01,2013-09-12 16:23:00,
2013-09-12 12:28:00,83.8,73.0,29.84,ENE,72,0.0,1.0,70,0.00,,---,0.00,VWS V14.01,2013-09-12 16:28:00,
2013-09-12 12:33:00,84.4,74.0,29.84,ENE,59,0.0,0.0,71,0.00,,---,0.00,VWS V14.01,2013-09-12 16:33:00,
2013-09-12 12:38:00,85.1,73.8,29.84,NNE,15,0.0,0.0,69,0.00,,---,0.00,VWS V14.01,2013-09-12 16:38:00,
2013-09-12 12:43:00,85.5,74.6,29.84,NW,321,0.0,0.0,70,0.00,,---,0.00,VWS V14.01,2013-09-12 16:43:00,
2013-09-12 12:48:00,85.9,74.1,29.83,SE,129,0.0,1.0,68,0.00,,---,0.00,VWS V14.01,2013-09-12 16:48:00,
2013-09-12 12:53:00,86.0,74.2,29.83,North,8,0.0,0.0,68,0.00,,---,0.00,VWS V14.01,2013-09-12 16:53:00,
2013-09-12 12:58:00,85.6,72.9,29.83,SE,129,0.0,1.0,66,0.00,,---,0.00,VWS V14.01,2013-09-12 16:58:00,
2013-09-12 13:03:00,85.6,73.4,29.83,East,100,0.0,0.0,67,0.00,,---,0.00,VWS V14.01,2013-09-12 17:03:00,
2013-09-12 13:09:00,85.9,73.2,29.83,NNW,337,0.0,1.0,66,0.00,,---,0.00,VWS V14.01,2013-09-12 17:09:00,
2013-09-12 13:14:00,86.3,72.2,29.82,NE,53,1.0,2.0,63,0.00,,---,0.00,VWS V14.01,2013-09-12 17:14:00,
2013-09-12 13:19:00,86.8,72.7,29.82,East,79,0.0,0.0,63,0.00,,---,0.00,VWS V14.01,2013-09-12 17:19:00,
2013-09-12 13:24:00,87.3,73.6,29.82,North,349,0.0,0.0,64,0.00,,---,0.00,VWS V14.01,2013-09-12 17:24:00,
2013-09-12 13:29:00,87.3,72.7,29.82,North,6,0.0,3.0,62,0.00,,---,0.00,VWS V14.01,2013-09-12 17:29:00,
2013-09-12 13:34:00,87.3,73.2,29.82,ESE,103,1.0,1.0,63,0.00,,---,0.00,VWS V14.01,2013-09-12 17:34:00,
2013-09-12 13:39:00,87.2,73.6,29.81,East,79,0.0,1.0,64,0.00,,---,0.00,VWS V14.01,2013-09-12 17:39:00,
2013-09-12 13:44:00,87.3,73.6,29.81,SE,131,0.0,1.0,64,0.00,,---,0.00,VWS V14.01,2013-09-12 17:44:00,
2013-09-12 13:49:00,87.6,74.4,29.81,NNW,343,0.0,0.0,65,0.00,,---,0.00,VWS V14.01,2013-09-12 17:49:00,
2013-09-12 13:54:00,87.9,73.7,29.81,NNW,338,0.0,1.0,63,0.00,,---,0.00,VWS V14.01,2013-09-12 17:54:00,
2013-09-12 13:59:00,87.9,74.2,29.80,NW,316,0.0,0.0,64,0.00,,---,0.00,VWS V14.01,2013-09-12 17:59:00,
2013-09-12 14:04:00,88.1,73.4,29.80,NNE,18,0.0,1.0,62,0.00,,---,0.00,VWS V14.01,2013-09-12 18:04:00,
2013-09-12 14:09:00,87.5,72.9,29.79,East,100,0.0,3.0,62,0.00,,---,0.00,VWS V14.01,2013-09-12 18:09:00,
2013-09-12 14:14:00,86.9,73.7,29.80,NNW,333,0.0,0.0,65,0.00,,---,0.00,VWS V14.01,2013-09-12 18:14:00,
2013-09-12 14:19:00,86.5,71.9,29.79,ESE,108,0.0,0.0,62,0.00,,---,0.00,VWS V14.01,2013-09-12 18:19:00,
2013-09-12 14:24:00,86.5,72.4,29.79,ESE,115,0.0,0.0,63,0.00,,---,0.00,VWS V14.01,2013-09-12 18:24:00,
2013-09-12 14:29:00,86.6,72.0,29.78,ESE,117,0.0,0.0,62,0.00,,---,0.00,VWS V14.01,2013-09-12 18:29:00,
2013-09-12 14:34:00,86.7,72.1,29.78,WNW,295,0.0,0.0,62,0.00,,---,0.00,VWS V14.01,2013-09-12 18:34:00,
2013-09-12 14:39:00,86.7,71.7,29.77,ESE,112,0.0,0.0,61,0.00,,---,0.00,VWS V14.01,2013-09-12 18:39:00,
2013-09-12 14:45:00,86.6,73.0,29.76,SSE,152,0.0,0.0,64,0.00,,---,0.00,VWS V14.01,2013-09-12 18:45:00,
2013-09-12 14:50:00,86.3,72.7,29.76,SSE,157,0.0,0.0,64,0.00,,---,0.00,VWS V14.01,2013-09-12 18:50:00,
2013-09-12 14:55:00,86.3,73.6,29.76,ESE,108,0.0,0.0,66,0.00,,---,0.00,VWS V14.01,2013-09-12 18:55:00,
2013-09-12 15:00:00,86.3,72.2,29.76,ESE,103,0.0,0.0,63,0.00,,---,0.00,VWS V14.01,2013-09-12 19:00:00,
2013-09-12 15:05:00,86.3,73.2,29.75,NE,39,0.0,0.0,65,0.00,,---,0.00,VWS V14.01,2013-09-12 19:05:00,
2013-09-12 15:10:00,86.4,73.2,29.75,West,271,0.0,0.0,65,0.00,,---,0.00,VWS V14.01,2013-09-12 19:10:00,
2013-09-12 15:15:00,86.2,73.1,29.74,NNE,19,0.0,0.0,65,0.00,,---,0.00,VWS V14.01,2013-09-12 19:15:00,
2013-09-12 15:20:00,86.2,72.1,29.74,North,354,0.0,0.0,63,0.00,,---,0.00,VWS V14.01,2013-09-12 19:20:00,
2013-09-12 15:25:00,86.2,73.1,29.73,NW,321,0.0,0.0,65,0.00,,---,0.00,VWS V14.01,2013-09-12 19:25:00,
2013-09-12 15:30:00,86.2,73.1,29.73,NW,321,0.0,0.0,65,0.00,,---,0.00,VWS V14.01,2013-09-12 19:30:00,
2013-09-12 15:35:00,86.2,71.2,29.72,NW,323,0.0,0.0,61,0.00,,---,0.00,VWS V14.01,2013-09-12 19:35:00,
2013-09-12 15:41:00,86.3,71.3,29.72,South,169,0.0,0.0,61,0.00,,---,0.00,VWS V14.01,2013-09-12 19:41:00,
2013-09-12 15:46:00,86.5,73.8,29.72,East,92,0.0,0.0,66,0.00,,---,0.00,VWS V14.01,2013-09-12 19:46:00,
2013-09-12 15:51:00,86.4,71.8,29.72,East,98,0.0,0.0,62,0.00,,---,0.00,VWS V14.01,2013-09-12 19:51:00,
2013-09-12 15:56:00,86.9,71.3,29.73,South,174,0.0,0.0,60,0.00,,---,0.00,VWS V14.01,2013-09-12 19:56:00,
2013-09-12 16:01:00,86.9,71.8,29.74,ESE,103,0.0,1.0,61,0.00,,---,0.00,VWS V14.01,2013-09-12 20:01:00,
2013-09-12 16:06:00,85.8,68.3,29.73,SE,125,0.0,1.0,56,0.00,,---,0.00,VWS V14.01,2013-09-12 20:06:00,
2013-09-12 16:11:00,84.1,66.2,29.73,SSW,211,0.0,0.0,55,0.00,,---,0.00,VWS V14.01,2013-09-12 20:11:00,
2013-09-12 16:16:00,83.0,66.2,29.73,SW,229,0.0,0.0,57,0.00,,---,0.00,VWS V14.01,2013-09-12 20:16:00,
2013-09-12 16:21:00,82.3,67.0,29.73,SW,229,0.0,0.0,60,0.00,,---,0.00,VWS V14.01,2013-09-12 20:21:00,
2013-09-12 16:26:00,81.7,67.4,29.72,SSE,155,0.0,0.0,62,0.00,,---,0.00,VWS V14.01,2013-09-12 20:26:00,
2013-09-12 16:31:00,81.5,66.8,29.72,SSE,154,0.0,0.0,61,0.00,,---,0.00,VWS V14.01,2013-09-12 20:31:00,
2013-09-12 16:36:00,81.4,67.6,29.72,SSE,153,0.0,0.0,63,0.00,,---,0.00,VWS V14.01,2013-09-12 20:36:00,
2013-09-12 16:42:00,81.6,68.2,29.72,SSE,155,0.0,0.0,64,0.00,,---,0.00,VWS V14.01,2013-09-12 20:42:00,
2013-09-12 16:47:00,81.7,67.9,29.72,West,277,1.0,1.0,63,0.00,,---,0.00,VWS V14.01,2013-09-12 20:47:00,
2013-09-12 16:52:00,81.6,67.8,29.73,SW,232,0.0,0.0,63,0.00,,---,0.00,VWS V14.01,2013-09-12 20:52:00,
2013-09-12 16:57:00,81.6,67.8,29.73,South,173,0.0,0.0,63,0.00,,---,0.00,VWS V14.01,2013-09-12 20:57:00,
2013-09-12 17:02:00,81.5,68.2,29.73,South,173,0.0,0.0,64,0.00,,---,0.00,VWS V14.01,2013-09-12 21:02:00,
2013-09-12 17:07:00,81.3,68.4,29.73,South,173,0.0,0.0,65,0.00,,---,0.00,VWS V14.01,2013-09-12 21:07:00,
2013-09-12 17:12:00,80.9,68.5,29.73,SSW,203,0.0,0.0,66,0.00,,---,0.00,VWS V14.01,2013-09-12 21:12:00,
2013-09-12 17:17:00,80.7,68.7,29.73,SSW,203,0.0,0.0,67,0.00,,---,0.00,VWS V14.01,2013-09-12 21:17:00,
2013-09-12 17:22:00,80.5,68.1,29.74,SSW,193,0.0,0.0,66,0.00,,---,0.00,VWS V14.01,2013-09-12 21:22:00,
2013-09-12 17:27:00,80.3,67.5,29.74,SSE,162,0.0,1.0,65,0.00,,---,0.00,VWS V14.01,2013-09-12 21:27:00,
2013-09-12 17:32:00,80.0,68.1,29.74,SSE,162,0.0,0.0,67,0.00,,---,0.00,VWS V14.01,2013-09-12 21:32:00,
2013-09-12 17:37:00,79.7,67.8,29.75,SSE,162,0.0,0.0,67,0.00,,---,0.00,VWS V14.01,2013-09-12 21:37:00,
2013-09-12 17:42:00,79.6,68.1,29.75,SSE,162,0.0,0.0,68,0.00,,---,0.00,VWS V14.01,2013-09-12 21:42:00,
2013-09-12 17:47:00,79.7,67.3,29.75,SSE,167,0.0,0.0,66,0.00,,---,0.00,VWS V14.01,2013-09-12 21:47:00,
2013-09-12 17:52:00,79.9,68.8,29.75,SSE,163,0.0,0.0,69,0.00,,---,0.00,VWS V14.01,2013-09-12 21:52:00,
2013-09-12 17:58:00,79.8,70.0,29.75,SSE,153,0.0,0.0,72,0.00,,---,0.00,VWS V14.01,2013-09-12 21:58:00,
2013-09-12 18:03:00,79.5,70.9,29.75,ESE,112,0.0,0.0,75,0.00,,---,0.00,VWS V14.01,2013-09-12 22:03:00,
2013-09-12 18:08:00,79.0,70.8,29.75,East,85,0.0,0.0,76,0.00,,---,0.00,VWS V14.01,2013-09-12 22:08:00,
2013-09-12 18:13:00,78.6,70.8,29.75,ESE,123,0.0,0.0,77,0.00,,---,0.00,VWS V14.01,2013-09-12 22:13:00,
2013-09-12 18:18:00,78.0,70.2,29.75,NNE,18,0.0,0.0,77,0.00,,---,0.00,VWS V14.01,2013-09-12 22:18:00,
2013-09-12 18:23:00,77.7,70.3,29.75,NNE,25,0.0,0.0,78,0.00,,---,0.00,VWS V14.01,2013-09-12 22:23:00,
2013-09-12 18:28:00,77.2,70.2,29.74,SE,129,0.0,0.0,79,0.00,,---,0.00,VWS V14.01,2013-09-12 22:28:00,
2013-09-12 18:33:00,76.9,70.3,29.74,SE,128,0.0,0.0,80,0.00,,---,0.00,VWS V14.01,2013-09-12 22:33:00,
2013-09-12 18:38:00,76.7,70.1,29.74,SE,129,0.0,0.0,80,0.00,,---,0.00,VWS V14.01,2013-09-12 22:38:00,
2013-09-12 18:43:00,76.5,70.2,29.74,SE,128,0.0,0.0,81,0.00,,---,0.00,VWS V14.01,2013-09-12 22:43:00,
2013-09-12 18:49:00,76.1,69.8,29.74,SE,129,0.0,0.0,81,0.00,,---,0.00,VWS V14.01,2013-09-12 22:49:00,
2013-09-12 18:54:00,75.8,69.9,29.74,SE,129,0.0,0.0,82,0.00,,---,0.00,VWS V14.01,2013-09-12 22:54:00,
2013-09-12 18:59:00,75.5,69.6,29.74,SE,129,0.0,0.0,82,0.00,,---,0.00,VWS V14.01,2013-09-12 22:59:00,
2013-09-12 19:04:00,75.2,69.7,29.74,SE,129,0.0,0.0,83,0.00,,---,0.00,VWS V14.01,2013-09-12 23:04:00,
2013-09-12 19:09:00,74.7,69.6,29.74,SE,128,0.0,0.0,84,0.00,,---,0.00,VWS V14.01,2013-09-12 23:09:00,
2013-09-12 19:14:00,74.4,69.6,29.74,SE,129,0.0,0.0,85,0.00,,---,0.00,VWS V14.01,2013-09-12 23:14:00,
2013-09-12 19:19:00,74.1,69.3,29.74,SE,128,0.0,0.0,85,0.00,,---,0.00,VWS V14.01,2013-09-12 23:19:00,
2013-09-12 19:24:00,74.0,69.2,29.74,SE,129,0.0,0.0,85,0.00,,---,0.00,VWS V14.01,2013-09-12 23:24:00,
2013-09-12 19:29:00,73.9,69.1,29.74,SE,129,0.0,0.0,85,0.00,,---,0.00,VWS V14.01,2013-09-12 23:29:00,
2013-09-12 19:34:00,73.9,69.1,29.74,West,262,0.0,0.0,85,0.00,,---,0.00,VWS V14.01,2013-09-12 23:34:00,
2013-09-12 19:40:00,73.8,69.3,29.74,SW,231,0.0,0.0,86,0.00,,---,0.00,VWS V14.01,2013-09-12 23:40:00,
2013-09-12 19:45:00,73.6,69.2,29.75,SW,231,0.0,0.0,86,0.00,,---,0.00,VWS V14.01,2013-09-12 23:45:00,
2013-09-12 19:50:00,73.5,68.7,29.75,SW,232,0.0,0.0,85,0.00,,---,0.00,VWS V14.01,2013-09-12 23:50:00,
2013-09-12 19:55:00,73.3,68.5,29.75,SW,232,0.0,0.0,85,0.00,,---,0.00,VWS V14.01,2013-09-12 23:55:00,
2013-09-12 20:00:00,73.1,67.3,29.74,WSW,238,0.0,0.0,82,0.00,,---,0.00,VWS V14.01,2013-09-13 00:00:00,
2013-09-12 20:05:00,73.1,66.6,29.75,WNW,287,0.0,0.0,80,0.00,,---,0.00,VWS V14.01,2013-09-13 00:05:00,
2013-09-12 20:10:00,73.3,67.8,29.75,NW,308,0.0,0.0,83,0.00,,---,0.00,VWS V14.01,2013-09-13 00:10:00,
2013-09-12 20:15:00,73.2,67.0,29.75,WSW,255,0.0,0.0,81,0.00,,---,0.00,VWS V14.01,2013-09-13 00:15:00,
2013-09-12 20:20:00,73.2,67.4,29.75,WSW,255,0.0,0.0,82,0.00,,---,0.00,VWS V14.01,2013-09-13 00:20:00,
2013-09-12 20:25:00,73.0,67.2,29.75,WSW,255,0.0,0.0,82,0.00,,---,0.00,VWS V14.01,2013-09-13 00:25:00,
2013-09-12 20:30:00,72.8,66.6,29.75,WSW,255,0.0,0.0,81,0.00,,---,0.00,VWS V14.01,2013-09-13 00:30:00,
2013-09-12 20:36:00,72.8,67.0,29.75,North,350,0.0,0.0,82,0.00,,---,0.00,VWS V14.01,2013-09-13 00:36:00,
2013-09-12 20:41:00,72.6,66.8,29.74,North,351,0.0,0.0,82,0.00,,---,0.00,VWS V14.01,2013-09-13 00:41:00,
2013-09-12 20:46:00,72.5,66.0,29.75,North,350,0.0,0.0,80,0.00,,---,0.00,VWS V14.01,2013-09-13 00:46:00,
2013-09-12 20:51:00,72.5,66.7,29.75,North,350,0.0,0.0,82,0.00,,---,0.00,VWS V14.01,2013-09-13 00:51:00,
2013-09-12 20:56:00,72.3,66.2,29.75,North,350,0.0,0.0,81,0.00,,---,0.00,VWS V14.01,2013-09-13 00:56:00,
2013-09-12 21:01:00,72.1,65.2,29.75,NNW,335,0.0,0.0,79,0.00,,---,0.00,VWS V14.01,2013-09-13 01:01:00,
2013-09-12 21:06:00,72.0,65.1,29.74,NNW,336,0.0,0.0,79,0.00,,---,0.00,VWS V14.01,2013-09-13 01:06:00,
2013-09-12 21:11:00,71.9,65.0,29.75,NNW,335,0.0,0.0,79,0.00,,---,0.00,VWS V14.01,2013-09-13 01:11:00,
2013-09-12 21:16:00,71.9,65.8,29.75,NNW,336,0.0,0.0,81,0.00,,---,0.00,VWS V14.01,2013-09-13 01:16:00,
2013-09-12 21:22:00,71.8,65.3,29.75,NNW,334,0.0,0.0,80,0.00,,---,0.00,VWS V14.01,2013-09-13 01:22:00,
2013-09-12 21:27:00,71.6,65.1,29.75,NNW,334,0.0,0.0,80,0.00,,---,0.00,VWS V14.01,2013-09-13 01:27:00,
2013-09-12 21:32:00,71.5,65.7,29.75,NNW,335,0.0,0.0,82,0.00,,---,0.00,VWS V14.01,2013-09-13 01:32:00,
2013-09-12 21:37:00,71.3,65.9,29.75,NNW,336,0.0,0.0,83,0.00,,---,0.00,VWS V14.01,2013-09-13 01:37:00,
2013-09-12 21:42:00,71.0,65.9,29.75,NNW,336,0.0,0.0,84,0.00,,---,0.00,VWS V14.01,2013-09-13 01:42:00,
2013-09-12 21:47:00,70.8,65.7,29.75,NNW,335,0.0,0.0,84,0.00,,---,0.00,VWS V14.01,2013-09-13 01:47:00,
2013-09-12 21:52:00,70.6,65.9,29.75,NNW,336,0.0,0.0,85,0.00,,---,0.00,VWS V14.01,2013-09-13 01:52:00,
2013-09-12 21:57:00,70.4,65.7,29.75,NNW,336,0.0,0.0,85,0.00,,---,0.00,VWS V14.01,2013-09-13 01:57:00,
2013-09-12 22:02:00,70.2,65.8,29.75,NNW,334,0.0,0.0,86,0.00,,---,0.00,VWS V14.01,2013-09-13 02:02:00,
2013-09-12 22:07:00,69.9,65.5,29.75,NNW,334,0.0,0.0,86,0.00,,---,0.00,VWS V14.01,2013-09-13 02:07:00,
2013-09-12 22:12:00,69.8,65.4,29.75,NNW,334,0.0,0.0,86,0.00,,---,0.00,VWS V14.01,2013-09-13 02:12:00,
2013-09-12 22:17:00,69.7,65.3,29.75,NNW,335,0.0,0.0,86,0.00,,---,0.00,VWS V14.01,2013-09-13 02:17:00,
2013-09-12 22:22:00,69.8,65.4,29.75,NNW,335,0.0,0.0,86,0.00,,---,0.00,VWS V14.01,2013-09-13 02:22:00,
2013-09-12 22:28:00,69.9,65.2,29.75,NNW,335,0.0,0.0,85,0.00,,---,0.00,VWS V14.01,2013-09-13 02:28:00,
2013-09-12 22:33:00,70.1,65.4,29.75,NNW,334,0.0,0.0,85,0.00,,---,0.00,VWS V14.01,2013-09-13 02:33:00,
2013-09-12 22:38:00,70.1,65.4,29.75,NNW,334,0.0,0.0,85,0.00,,---,0.00,VWS V14.01,2013-09-13 02:38:00,
2013-09-12 22:43:00,70.0,65.3,29.75,NNW,335,0.0,0.0,85,0.00,,---,0.00,VWS V14.01,2013-09-13 02:43:00,
2013-09-12 22:48:00,69.9,65.2,29.75,NNW,334,0.0,0.0,85,0.00,,---,0.00,VWS V14.01,2013-09-13 02:48:00,
2013-09-12 22:53:00,69.7,65.0,29.75,NNW,335,0.0,0.0,85,0.00,,---,0.00,VWS V14.01,2013-09-13 02:53:00,
2013-09-12 22:58:00,69.5,64.5,29.75,NNW,334,0.0,0.0,84,0.00,,---,0.00,VWS V14.01,2013-09-13 02:58:00,
2013-09-12 23:03:00,69.4,64.4,29.74,NNW,335,0.0,0.0,84,0.00,,---,0.00,VWS V14.01,2013-09-13 03:03:00,
2013-09-12 23:08:00,69.3,64.3,29.74,NNW,334,0.0,0.0,84,0.00,,---,0.00,VWS V14.01,2013-09-13 03:08:00,
2013-09-12 23:13:00,69.2,64.2,29.75,NNW,334,0.0,0.0,84,0.00,,---,0.00,VWS V14.01,2013-09-13 03:13:00,
2013-09-12 23:18:00,69.0,64.0,29.74,NNW,334,0.0,0.0,84,0.00,,---,0.00,VWS V14.01,2013-09-13 03:18:00,
2013-09-12 23:24:00,68.8,63.8,29.74,NNW,334,0.0,0.0,84,0.00,,---,0.00,VWS V14.01,2013-09-13 03:24:00,
2013-09-12 23:29:00,68.6,63.2,29.74,NNW,334,0.0,0.0,83,0.00,,---,0.00,VWS V14.01,2013-09-13 03:29:00,
2013-09-12 23:34:00,68.5,63.1,29.74,NNW,334,0.0,0.0,83,0.00,,---,0.00,VWS V14.01,2013-09-13 03:34:00,
2013-09-12 23:39:00,68.6,62.9,29.74,NNW,334,0.0,0.0,82,0.00,,---,0.00,VWS V14.01,2013-09-13 03:39:00,
2013-09-12 23:44:00,68.6,62.9,29.73,NNW,335,0.0,0.0,82,0.00,,---,0.00,VWS V14.01,2013-09-13 03:44:00,
2013-09-12 23:49:00,68.6,62.9,29.73,NNW,335,0.0,0.0,82,0.00,,---,0.00,VWS V14.01,2013-09-13 03:49:00,
2013-09-12 23:54:00,68.6,63.2,29.73,NNW,334,0.0,0.0,83,0.00,,---,0.00,VWS V14.01,2013-09-13 03:54:00,
2013-09-12 23:59:00,68.6,63.6,29.73,NNW,335,0.0,0.0,84,0.00,,---,0.00,VWS V14.01,2013-09-13 03:59:00,